Location: Calgary
(51.0833°N, 114.0833°W)
Time: 07:01:16
(UTC-07:00)

N. Korean satellite - Visible Passes

Search period start: 18 November 2017 00:00
Search period end: 28 November 2017 00:00
Orbit: 460 x 515 km, 97.2° (Epoch: 17 November)

Date Brightness Start Highest point End Pass type
(mag) Time Alt. Az. Time Alt. Az. Time Alt. Az.
18 Nov 10.3 06:12:35 10° ENE 06:13:36 11° E 06:14:38 10° ESE visible
18 Nov 6.4 18:24:56 10° SSE 18:28:26 87° ENE 18:32:02 10° NNW visible
19 Nov 7.5 07:20:27 10° NNE 07:24:09 57° E 07:27:49 10° S visible
19 Nov 6.7 18:01:38 10° SE 18:05:00 46° ENE 18:08:28 10° N visible
19 Nov 9.6 19:36:37 10° SW 19:38:49 16° W 19:41:03 10° NW visible
20 Nov 8.8 06:57:11 10° NNE 07:00:35 32° E 07:03:58 10° SSE visible
20 Nov 7.5 17:38:39 10° SE 17:41:39 26° ENE 17:44:42 10° N visible
20 Nov 8.7 19:12:06 10° SSW 19:15:08 27° W 19:18:15 10° NW visible
21 Nov 9.8 06:34:13 10° NE 06:36:56 19° E 06:39:39 10° SE visible
21 Nov 8.1 17:16:05 10° ESE 17:18:22 16° ENE 17:20:40 10° NNE visible
21 Nov 7.5 18:48:06 10° S 18:51:32 49° W 18:55:03 10° NNW visible
22 Nov 10.3 06:12:08 10° ENE 06:13:13 11° E 06:14:18 10° ESE visible
22 Nov 6.4 18:24:29 10° SSE 18:28:01 87° ENE 18:31:39 10° NNW visible
23 Nov 7.5 07:20:01 10° NNE 07:23:44 57° E 07:27:26 10° S visible
23 Nov 6.8 18:01:09 10° SE 18:04:34 46° ENE 18:08:03 10° N visible
23 Nov 9.6 19:36:06 10° SW 19:38:22 16° W 19:40:39 10° NW visible
24 Nov 8.7 06:56:44 10° NNE 07:00:09 32° E 07:03:33 10° SSE visible
24 Nov 7.5 17:38:09 10° SE 17:41:11 27° ENE 17:44:17 10° N visible
24 Nov 8.7 19:11:35 10° SSW 19:14:40 27° W 19:17:49 10° NW visible
25 Nov 9.7 06:33:45 10° NE 06:36:29 19° E 06:39:12 10° SE visible
25 Nov 8.1 17:15:33 10° ESE 17:17:53 17° ENE 17:20:14 10° NNE visible
25 Nov 7.5 18:47:34 10° S 18:51:02 50° W 18:54:36 10° NNW visible
26 Nov 10.2 06:11:37 10° ENE 06:12:44 11° E 06:13:50 10° ESE visible
26 Nov 6.5 18:23:56 10° SSE 18:27:30 86° ENE 18:31:10 10° NNW visible
27 Nov 7.5 07:19:31 10° NNE 07:23:14 57° E 07:26:57 10° S visible
27 Nov 6.8 18:00:36 10° SE 18:04:02 46° ENE 18:07:34 10° N visible
27 Nov 9.6 19:35:30 10° SW 19:37:50 16° W 19:40:11 10° NW visible
